Buies Creek, NC

5:43 PM EDT on July 24, 2016 (GMT -0400)
Harnett County

Weather History for KHRJ - December, 2012

Change the Weather History Date:

Wednesday, December 19, 2012

  Actual Average Record
Temperature  
Mean Temperature 50 °F -  
Max Temperature 67 °F 54 °F 77 °F (1984)
Min Temperature 33 °F 30 °F 11 °F (1975)
Degree Days  
Heating Degree Days 15    
Moisture  
Dew Point 37 °F    
Average Humidity 71    
Maximum Humidity 99    
Minimum Humidity 28    
Precipitation  
Precipitation 0.00 in - - ()
Sea Level Pressure  
Sea Level Pressure 30.02 in    
Wind  
Wind Speed 1 mph (SW)    
Max Wind Speed 7 mph    
Max Gust Speed -    
Visibility 10 miles    
Events      
Averages and records for this station are not official NWS values.
T = Trace of Precipitation, MM = Missing Value Source: NWS Daily Summary

Daily Weather History Graph

Daily Weather History Graph

Search for Another Location

Airport or City:

Trip Planner

Search our weather history database for the weather conditions in past years. The results will help you decide how hot, cold, wet, or windy it might be!

Date:

Astronomy

Dec. 19, 2012 Rise Set
Actual Time 7:19 AM EST 5:05 PM EST
Civil Twilight 6:50 AM EST 5:33 PM EST
Nautical Twilight 6:19 AM EST 6:05 PM EST
Astronomical Twilight 5:48 AM EST 6:36 PM EST
Moon 11:41 AM EST (12/19) No Moon Set
Length of Visible Light 10h 42m
Length of Day
9h 46m
Waxing Crescent, 45% of the Moon is Illuminated
Dec 19
Waxing Crescent
Dec 20
First Quarter
Dec 28
Full
Jan 4
Last Quarter
Jan 11
New

Hourly Weather History & Observations

Time (EST) Temp. Windchill Dew Point Humidity Pressure Visibility Wind Dir Wind Speed Gust Speed Precip Events Conditions
12:15 AM 38.7 °F - 37.2 °F 95% 29.92 in 10.0 mi Calm Calm - N/A   Clear
12:35 AM 37.6 °F - 36.7 °F 97% 29.92 in 10.0 mi Calm Calm - N/A   Clear
12:55 AM 37.8 °F - 36.5 °F 95% 29.91 in 10.0 mi Calm Calm - N/A   Clear
1:15 AM 37.9 °F - 37.2 °F 97% 29.92 in 10.0 mi Calm Calm - N/A   Clear
1:35 AM 37.6 °F - 36.9 °F 97% 29.93 in 10.0 mi Calm Calm - N/A   Clear
1:55 AM 37.0 °F - 36.0 °F 96% 29.93 in 10.0 mi Calm Calm - N/A   Clear
2:15 AM 37.6 °F 35.1 °F 36.1 °F 95% 29.94 in 10.0 mi South 3.5 mph - N/A   Clear
2:35 AM 36.5 °F 33.9 °F 35.2 °F 95% 29.93 in 10.0 mi SSE 3.5 mph - N/A   Clear
2:55 AM 37.4 °F 34.9 °F 34.9 °F 91% 29.93 in 10.0 mi South 3.5 mph - N/A   Clear
3:15 AM 36.9 °F 34.3 °F 35.6 °F 95% 29.94 in 10.0 mi South 3.5 mph - N/A   Clear
3:35 AM 36.5 °F 33.9 °F 35.1 °F 95% 29.94 in 10.0 mi South 3.5 mph - N/A   Clear
3:55 AM 37.0 °F 34.5 °F 34.9 °F 92% 29.94 in 10.0 mi SSW 3.5 mph - N/A   Clear
4:15 AM 35.6 °F 32.8 °F 34.9 °F 97% 29.94 in 10.0 mi South 3.5 mph - N/A   Clear
4:35 AM 37.0 °F - 34.9 °F 92% 29.94 in 10.0 mi Calm Calm - N/A   Clear
4:55 AM 36.3 °F - 34.0 °F 91% 29.95 in 10.0 mi Calm Calm - N/A   Clear
5:15 AM 35.4 °F - 34.0 °F 94% 29.96 in 10.0 mi Calm Calm - N/A   Clear
5:35 AM 36.0 °F - 34.0 °F 93% 29.96 in 10.0 mi Calm Calm - N/A   Clear
5:55 AM 35.6 °F - 33.6 °F 92% 29.96 in 10.0 mi Calm Calm - N/A   Clear
6:15 AM 34.3 °F - 33.1 °F 95% 29.98 in 10.0 mi Calm Calm - N/A   Clear
6:35 AM 33.8 °F - 32.5 °F 95% 29.98 in 10.0 mi Calm Calm - N/A   Clear
6:55 AM 34.0 °F - 33.3 °F 97% 29.99 in 10.0 mi Calm Calm - N/A   Clear
7:15 AM 33.1 °F - 32.5 °F 98% 30.00 in 10.0 mi Calm Calm - N/A   Clear
7:35 AM 33.8 °F - 32.9 °F 96% 30.01 in 10.0 mi Calm Calm - N/A   Clear
7:55 AM 34.0 °F - 33.6 °F 99% 30.02 in 10.0 mi Calm Calm - N/A   Clear
8:15 AM 36.1 °F - 35.1 °F 96% 30.03 in 10.0 mi Calm Calm - N/A   Clear
8:35 AM 37.9 °F - 36.0 °F 93% 30.03 in 10.0 mi Calm Calm - N/A   Clear
8:55 AM 40.8 °F 38.8 °F 36.5 °F 85% 30.03 in 10.0 mi South 3.5 mph - N/A   Clear
9:15 AM 41.9 °F - 36.7 °F 82% 30.04 in 10.0 mi Calm Calm - N/A   Clear
9:35 AM 43.7 °F 42.1 °F 37.6 °F 79% 30.05 in 10.0 mi SSW 3.5 mph - N/A   Clear
9:55 AM 47.7 °F - 34.9 °F 61% 30.05 in 10.0 mi SW 3.5 mph - N/A   Clear
10:15 AM 50.2 °F - 34.9 °F 56% 30.05 in 10.0 mi SW 3.5 mph - N/A   Clear
10:35 AM 51.8 °F - 34.5 °F 52% 30.05 in 10.0 mi SW 3.5 mph - N/A   Clear
10:55 AM 53.8 °F - 35.1 °F 49% 30.05 in 10.0 mi SW 5.8 mph - N/A   Clear
11:15 AM 55.9 °F - 35.4 °F 46% 30.05 in 10.0 mi SW 4.6 mph - N/A   Clear
11:35 AM 57.7 °F - 34.7 °F 42% 30.04 in 10.0 mi SSW 3.5 mph - N/A   Clear
11:55 AM 60.3 °F - 35.1 °F 39% 30.02 in 10.0 mi SSW 6.9 mph - N/A   Clear
12:15 PM 61.9 °F - 34.5 °F 36% 30.02 in 10.0 mi West 4.6 mph - N/A   Clear
12:35 PM 62.8 °F - 34.0 °F 34% 30.01 in 10.0 mi WSW 3.5 mph - N/A   Clear
12:55 PM 63.0 °F - 34.2 °F 34% 30.00 in 10.0 mi WSW 3.5 mph - N/A   Clear
1:15 PM 64.0 °F - 34.5 °F 33% 30.00 in 10.0 mi WSW 3.5 mph - N/A   Clear
1:35 PM 65.1 °F - 34.3 °F 32% 30.00 in 10.0 mi WSW 5.8 mph - N/A   Clear
1:55 PM 66.6 °F - 34.7 °F 31% 30.00 in 10.0 mi SW 5.8 mph - N/A   Clear
2:15 PM 66.2 °F - 34.9 °F 31% 30.00 in 10.0 mi SW 5.8 mph - N/A   Clear
2:35 PM 66.4 °F - 35.1 °F 31% 30.00 in 10.0 mi WSW 4.6 mph - N/A   Clear
2:55 PM 66.9 °F - 33.3 °F 29% 30.00 in 10.0 mi West 5.8 mph - N/A   Clear
3:15 PM 67.3 °F - 33.3 °F 28% 30.00 in 10.0 mi West 4.6 mph - N/A   Clear
3:35 PM 66.2 °F - 34.2 °F 30% 30.00 in 10.0 mi SSW 4.6 mph - N/A   Clear
3:55 PM 65.5 °F - 35.8 °F 33% 30.00 in 10.0 mi SSW 3.5 mph - N/A   Clear
4:15 PM 64.9 °F - 36.3 °F 35% 30.01 in 10.0 mi Calm Calm - N/A   Clear
4:35 PM 63.9 °F - 36.9 °F 37% 30.02 in 10.0 mi Calm Calm - N/A   Clear
4:55 PM 63.0 °F - 37.2 °F 38% 30.03 in 10.0 mi Calm Calm - N/A   Clear
5:15 PM 59.9 °F - 39.0 °F 46% 30.03 in 10.0 mi Calm Calm - N/A   Clear
5:35 PM 59.2 °F - 38.7 °F 47% 30.04 in 10.0 mi SW 3.5 mph - N/A   Clear
5:55 PM 57.6 °F - 40.3 °F 53% 30.05 in 10.0 mi Calm Calm - N/A   Clear
6:15 PM 56.7 °F - 40.1 °F 54% 30.06 in 10.0 mi Calm Calm - N/A   Clear
6:35 PM 55.9 °F - 41.0 °F 57% 30.06 in 10.0 mi Calm Calm - N/A   Clear
6:55 PM 53.2 °F - 41.0 °F 63% 30.07 in 10.0 mi Calm Calm - N/A   Clear
7:15 PM 52.0 °F - 40.8 °F 66% 30.08 in 10.0 mi Calm Calm - N/A   Clear
7:35 PM 50.4 °F - 41.0 °F 70% 30.08 in 10.0 mi Calm Calm - N/A   Clear
7:55 PM 50.2 °F - 41.2 °F 71% 30.09 in 10.0 mi Calm Calm - N/A   Clear
8:15 PM 48.4 °F - 41.7 °F 78% 30.09 in 10.0 mi Calm Calm - N/A   Clear
8:35 PM 47.8 °F - 41.4 °F 78% 30.10 in 10.0 mi Calm Calm - N/A   Clear
8:55 PM 47.8 °F - 41.2 °F 78% 30.10 in 10.0 mi Calm Calm - N/A   Clear
9:15 PM 46.8 °F - 41.0 °F 80% 30.10 in 10.0 mi Calm Calm - N/A   Clear
9:35 PM 46.4 °F - 40.6 °F 80% 30.10 in 10.0 mi Calm Calm - N/A   Clear
9:55 PM 45.7 °F - 40.6 °F 83% 30.11 in 10.0 mi Calm Calm - N/A   Clear
10:15 PM 45.9 °F - 40.6 °F 82% 30.12 in 10.0 mi Calm Calm - N/A   Clear
10:35 PM 43.0 °F - 40.8 °F 92% 30.12 in 10.0 mi Calm Calm - N/A   Clear
10:55 PM 43.5 °F - 41.9 °F 94% 30.12 in 10.0 mi Calm Calm - N/A   Clear
11:15 PM 42.1 °F - 40.5 °F 94% 30.13 in 10.0 mi Calm Calm - N/A   Clear
11:35 PM 41.7 °F - 40.5 °F 95% 30.12 in 10.0 mi Calm Calm - N/A   Clear
11:55 PM 42.3 °F - 41.0 °F 95% 30.12 in 10.0 mi Calm Calm - N/A   Clear